Hauptseite
METAR-TAF:

METAR-TAF

Flughäfen :

Syros, Griechenland

Breite: 37-25-16N, Länge: 024-56-54E, Höhe: 73 m

Beobachtung

Neuester Wetterbericht von vor 39 Minuten, um 04:50 UTC
Wind 8 kt aus West
Temperatur 16°C
Luftfeuchtigkeit 82%
Luftdruck 1013 hPa
Leichtregen

METAR: LGSO 220450Z AUTO 27008KT //// -RA ////// 16/13 Q1013 RE//

Zeit: 07:29 (05:29 UTC)


TAF: fehlend

Wetterbeobachtungen und Prognosen von mehr als 4000 Flughäfen (METAR und TAF Bericht).

Die verfügbaren Stationen werden durch gelbe und rote Markierungen auf der Karte dargestellt.

Führen Sie die Maus auf sie, um den Namen der Station zu sehen.

Darauf klicken, um die Beobachtung von Wetterbeobachtungen und Prognosen zu sehen.

Um die Karte zu ändern : klicken Sie auf den grünen Tasten mit einem schwarzen Kreuz Zum Vergrößern, auf den grünen Button mit einem Gedankenstrich zu verkleinern, oder auf die grünen Pfeile für benachbarte Karten.


METAR-TAF: